Location: Drocourt
(49.0571°N, 1.7669°E)
Time: 13:00:19
(UTC+00:00)

Cosmos 909 Rocket - Pass Details

Date: 09 February 2023
Orbit: 989 x 2090 km, 65.9° (Epoch: 21 March)

Event Time Altitude Azimuth Distance (km) Brightness Sun altitude
Rises 20:09:35 0° 322° (NW) 4,206 8.0 -30.9°
Reaches altitude 10° 20:12:33 10° 321° (NW) 3,105 7.2 -31.3°
Enters shadow 20:19:29 76° 253° (WSW) 1,081 4.2 -32.4°
